This demonstration page uses our WeatherBlox Daily Observations layout. Learn more.

Left ArrowRight Arrow

Hourly Observations for February 10, 2019

Temp ( °F °C ) Dew Point ( °F °C ) Humidity (%) Winds ( mph kmh ) Pressure ( in mb ) Visibility ( mi km ) Precip ( " mm )
12:57 am 00:57 Cloudy 30 -1.1 17 -8.3 58 58 SSE 17 28 30.10 1019 10 16 0.00 0.00
1:57 am 01:57 Mostly Cloudy 28 -2.2 18 -7.8 66 66 SE 18 30 30.09 1019 10 16 0.00 0.00
2:57 am 02:57 Clear 27 -2.8 19 -7.2 72 72 SSE 14 22 30.08 1019 10 16 0.00 0.00
3:57 am 03:57 Mostly Clear 26 -3.3 19 -7.2 75 75 ESE 10 17 30.05 1018 10 16 0.00 0.00
4:57 am 04:57 Cloudy 26 -3.3 20 -6.7 78 78 SE 8 13 30.05 1018 10 16 0.00 0.00
5:57 am 05:57 Cloudy 27 -2.8 20 -6.7 75 75 ESE 7 11 30.06 1018 10 16 0.00 0.00
6:57 am 06:57 Cloudy 26 -3.3 20 -6.7 78 78 NNE 10 17 30.09 1019 10 16 0.00 0.00
7:57 am 07:57 Cloudy 25 -3.9 22 -5.6 88 88 ENE 6 9 30.09 1019 10 16 0.00 0.00
8:57 am 08:57 Cloudy 27 -2.8 23 -5 85 85 NE 8 13 30.11 1020 10 16 0.00 0.00
9:57 am 09:57 Cloudy 28 -2.2 23 -5 81 81 NNE 8 13 30.14 1021 10 16 0.00 0.00
10:57 am 10:57 Cloudy 28 -2.2 23 -5 81 81 N 7 11 30.14 1021 10 16 0.00 0.00
11:34 am 11:34 Cloudy 28 -2 23 -5 80 80 NNW 8 13 30.20 1023 10 16 0.00 0.00
11:54 am 11:54 Cloudy 30 -1 23 -5 75 75 NNW 12 19 30.18 1022 10 16 0.00 0.00
11:57 am 11:57 Cloudy 30 -1.1 23 -5 75 75 N 12 19 30.14 1021 10 16 0.00 0.00
12:57 pm 12:57 Cloudy 28 -2.2 21 -6.1 75 75 NNW 13 20 30.14 1021 10 16 0.00 0.00
1:57 pm 13:57 Cloudy 26 -3.3 19 -7.2 75 75 N 14 22 30.14 1021 10 16 0.00 0.00
2:21 pm 14:21 Cloudy 27 -3 18 -8 69 69 N 15 24 30.19 1022 10 16 0.00 0.00
2:57 pm 14:57 Cloudy 26 -3.3 19 -7.2 75 75 N 15 24 30.14 1021 10 16 0.00 0.00
3:57 pm 15:57 Cloudy 27 -2.8 19 -7.2 72 72 N 16 26 30.11 1020 10 16 0.00 0.00
4:17 pm 16:17 Mostly Cloudy 27 -3 19 -7 74 74 NNE 13 20 30.17 1022 10 16 0.00 0.00
4:28 pm 16:28 Partly Cloudy 27 -3 19 -7 74 74 NNE 9 15 30.18 1022 10 16 0.00 0.00
4:36 pm 16:36 Mostly Cloudy 27 -3 19 -7 74 74 NNE 10 17 30.18 1022 10 16 0.00 0.00
4:57 pm 16:57 Cloudy 27 -2.8 19 -7.2 72 72 NNE 10 17 30.13 1020 10 16 0.00 0.00
6:26 pm 18:26 Cloudy 25 -4 19 -7 80 80 ENE 7 11 30.19 1022 10 16 0.00 0.00
6:57 pm 18:57 Cloudy 24 -4.4 20 -6.7 84 84 ENE 9 15 30.14 1021 10 16 0.00 0.00
7:33 pm 19:33 Cloudy 23 -5 19 -7 86 86 ENE 13 20 30.20 1023 10 16 0.00 0.00
7:57 pm 19:57 Cloudy 23 -5 21 -6.1 92 92 NE 15 24 30.12 1020 7 11 0.00 0.00
8:17 pm 20:17 Cloudy with Mist and Fog 23 -5 21 -6 93 93 NE 13 20 30.19 1022 5 8 0.00 0.00
8:57 pm 20:57 Cloudy 23 -5 21 -6.1 92 92 NE 12 19 30.12 1020 8 13 0.00 0.00
9:57 pm 21:57 Cloudy with Mist and Fog 23 -5 21 -6.1 92 92 ENE 14 22 30.11 1020 6 10 0.00 0.00
10:27 pm 22:27 Cloudy with Mist and Fog 21 -6 21 -6 100 100 E 15 24 30.18 1022 3 4 0.00 0.00
10:37 pm 22:37 Cloudy with Mist and Fog 21 -6 21 -6 100 100 ENE 15 24 30.17 1022 2 3 0.00 0.00
10:53 pm 22:53 Cloudy with Mist and Fog 23 -5 21 -6 93 93 ENE 15 24 30.16 1021 2 3 0.00 0.00
10:57 pm 22:57 Cloudy with Mist and Fog 23 -5 22 -5.6 96 96 ENE 15 24 30.09 1019 2 3 0.00 0.00
11:30 pm 23:30 Cloudy with Mist and Fog 23 -5 21 -6 93 93 ENE 15 24 30.15 1021 3 4 0.00 0.00
11:57 pm 23:57 Cloudy with Mist and Fog 23 -5 22 -5.6 96 96 ENE 16 26 30.07 1018 2 2 0.00 0.00

Powered by AerisWeather